IW5CTE-13 Weather Reports


time (UTC)temp
F
wind
direction
speed
knots
gust
knots
rain 1hr
in
rain 24hr
in
rain mn
in
humidity
%
barometer
mb
20260508023734 58 0.0 0.0 0.00 0.00 0.00 78 1012.0
20260508022734 58 0.0 0.0 0.00 0.00 0.00 77 1012.1
20260508021734 58 0.0 0.0 0.00 0.00 0.00 75 1012.1
20260508020734 58 0.0 0.0 0.00 0.00 0.00 74 1012.2
20260508015734 58 0.0 0.0 0.00 0.00 0.00 74 1012.3
20260508014733 58 0.0 0.0 0.00 0.00 0.00 72 1012.3
20260508013734 58 0.0 0.0 0.00 0.00 0.00 74 1012.4
20260508012734 58 0.0 0.0 0.00 0.00 0.00 74 1012.5
20260508011734 58 0.0 0.0 0.00 0.00 0.00 72 1012.5
20260508010734 58 0.0 0.0 0.00 0.00 0.00 71 1012.6
20260508005734 58 0.0 0.0 0.00 0.00 0.00 70 1012.6
20260508004734 59 0.0 0.0 0.00 0.00 0.00 70 1012.8
20260508003734 59 0.0 0.0 0.00 0.00 0.00 69 1013.0
20260508002734 59 0.0 0.0 0.00 0.00 0.00 69 1013.2
20260508001734 59 0.0 0.0 0.00 0.00 0.00 69 1013.3
20260508000734 59 0.0 0.0 0.00 0.00 0.00 69 1013.4
20260507235734 59 0.0 0.0 0.00 0.00 0.00 65 1013.5
20260507234734 60 0.0 0.0 0.00 0.00 0.00 65 1013.6
20260507233734 59 0.0 0.0 0.00 0.00 0.00 63 1013.7
20260507232733 59 0.0 0.0 0.00 0.00 0.00 68 1013.8
20260507231734 60 0.0 0.0 0.00 0.00 0.00 65 1014.0
20260507230733 60 0.0 0.0 0.00 0.00 0.00 68 1014.0
20260507225734 60 0.0 0.0 0.00 0.00 0.00 68 1014.0
20260507224734 60 0.0 0.0 0.00 0.00 0.00 68 1014.2
20260507223733 60 0.0 0.0 0.00 0.00 0.00 68 1014.2
20260507222734 61 0.0 0.0 0.00 0.00 0.00 67 1014.2
20260507221734 61 0.0 0.0 0.00 0.00 0.00 65 1014.2
20260507220734 61 0.0 0.0 0.00 0.00 0.00 67 1014.2
20260507215733 61 0.0 0.0 0.00 0.00 0.00 66 1014.2
20260507214733 61 0.0 0.0 0.00 0.00 0.00 64 1014.2
20260507213733 61 0.0 0.0 0.00 0.00 0.00 65 1014.2
20260507212734 62 0.0 0.0 0.00 0.00 0.00 64 1014.1
20260507211734 62 0.0 0.0 0.00 0.00 0.00 63 1014.1
20260507210734 62 0.0 0.0 0.00 0.00 0.00 62 1014.0
20260507205734 62 0.0 0.0 0.00 0.00 0.00 60 1014.1
20260507204733 63 0.0 0.0 0.00 0.00 0.00 58 1013.9
20260507203734 62 0.0 0.0 0.00 0.00 0.00 57 1014.0
20260507202734 63 0.0 0.0 0.00 0.00 0.00 64 1014.0
20260507201734 63 0.0 0.0 0.00 0.00 0.00 65 1013.9
20260507200734 64 0.0 0.0 0.00 0.00 0.00 65 1013.9
20260507195733 64 0.0 0.0 0.00 0.00 0.00 63 1013.9
20260507194734 65 0.0 0.0 0.00 0.00 0.00 57 1013.8
20260507193733 65 0.0 0.0 0.00 0.00 0.00 55 1013.7
20260507192733 66 0.0 0.0 0.00 0.00 0.00 54 1013.7
20260507191734 66 0.0 0.0 0.00 0.00 0.00 51 1013.8
20260507190734 66 0.0 0.0 0.00 0.00 0.00 51 1013.7
20260507185734 67 0.0 0.0 0.00 0.00 0.00 54 1013.7
20260507184734 67 0.0 0.0 0.00 0.00 0.00 56 1013.6
20260507183734 67 0.0 0.0 0.00 0.00 0.00 58 1013.7
20260507182733 67 0.0 0.0 0.00 0.00 0.00 59 1013.6
20260507181733 67 0.0 0.0 0.00 0.00 0.00 61 1013.6
20260507180734 67 0.0 0.0 0.00 0.00 0.00 60 1013.7
20260507175733 68 0.0 0.0 0.00 0.00 0.00 60 1013.6
20260507174734 68 0.0 0.0 0.00 0.00 0.00 58 1013.7
20260507173734 68 0.0 0.0 0.00 0.00 0.00 58 1013.6
20260507172734 68 0.0 0.0 0.00 0.00 0.00 56 1013.6
20260507171733 68 0.0 0.0 0.00 0.00 0.00 55 1013.6
20260507170734 69 0.0 0.0 0.00 0.00 0.00 55 1013.5
20260507165734 69 0.0 0.0 0.00 0.00 0.00 56 1013.5
20260507164734 69 0.0 0.0 0.00 0.00 0.00 56 1013.5
20260507163734 69 0.0 0.0 0.00 0.00 0.00 56 1013.4
20260507162734 70 0.0 0.0 0.00 0.00 0.00 55 1013.3
20260507161734 70 0.0 0.0 0.00 0.00 0.00 54 1013.3
20260507160734 70 0.0 0.0 0.00 0.00 0.00 54 1013.5
20260507155734 70 0.0 0.0 0.00 0.00 0.00 53 1013.5
20260507154734 70 0.0 0.0 0.00 0.00 0.00 55 1013.5
20260507153734 70 0.0 0.0 0.00 0.00 0.00 54 1013.5
20260507152734 70 0.0 0.0 0.00 0.00 0.00 54 1013.4
20260507151734 70 0.0 0.0 0.00 0.00 0.00 55 1013.4
20260507150734 70 0.0 0.0 0.00 0.00 0.00 53 1013.6
20260507145734 71 0.0 0.0 0.00 0.00 0.00 55 1013.5
20260507144734 71 0.0 0.0 0.00 0.00 0.00 53 1013.8
20260507143733 71 0.0 0.0 0.00 0.00 0.00 53 1013.8
20260507142734 71 0.0 0.0 0.00 0.00 0.00 53 1013.9
20260507141734 72 0.0 0.0 0.00 0.00 0.00 53 1013.9
20260507140734 72 0.0 0.0 0.00 0.00 0.00 53 1014.0
20260507135733 72 0.0 0.0 0.00 0.00 0.00 52 1014.0
20260507134734 73 0.0 0.0 0.00 0.00 0.00 50 1014.1
20260507133734 73 0.0 0.0 0.00 0.00 0.00 50 1014.3
20260507132734 73 0.0 0.0 0.00 0.00 0.00 49 1014.5
20260507131736 73 0.0 0.0 0.00 0.00 0.00 50 1014.5
20260507130733 73 0.0 0.0 0.00 0.00 0.00 49 1014.7
20260507125733 73 0.0 0.0 0.00 0.00 0.00 48 1014.9
20260507124734 74 0.0 0.0 0.00 0.00 0.00 48 1014.8
20260507123733 74 0.0 0.0 0.00 0.00 0.00 47 1014.8
20260507122734 74 0.0 0.0 0.00 0.00 0.00 45 1014.7
20260507121734 75 0.0 0.0 0.00 0.00 0.00 44 1014.7
20260507120733 75 0.0 0.0 0.00 0.00 0.00 45 1014.7
20260507115734 74 0.0 0.0 0.00 0.00 0.00 45 1014.7
20260507114734 75 0.0 0.0 0.00 0.00 0.00 45 1014.7
20260507113733 77 0.0 0.0 0.00 0.00 0.00 42 1014.8
20260507112734 77 0.0 0.0 0.00 0.00 0.00 43 1014.9
20260507111735 76 0.0 0.0 0.00 0.00 0.00 45 1015.1
20260507110734 76 0.0 0.0 0.00 0.00 0.00 42 1015.1
20260507105733 75 0.0 0.0 0.00 0.00 0.00 45 1015.2
20260507104733 75 0.0 0.0 0.00 0.00 0.00 44 1015.2
20260507103734 75 0.0 0.0 0.00 0.00 0.00 46 1015.3
20260507102733 74 0.0 0.0 0.00 0.00 0.00 47 1015.4
20260507101734 74 0.0 0.0 0.00 0.00 0.00 49 1015.3
20260507100734 72 0.0 0.0 0.00 0.00 0.00 48 1015.5
20260507095734 74 0.0 0.0 0.00 0.00 0.00 45 1015.4
20260507094734 76 0.0 0.0 0.00 0.00 0.00 44 1015.3
20260507093733 76 0.0 0.0 0.00 0.00 0.00 47 1015.2
20260507092734 73 0.0 0.0 0.00 0.00 0.00 51 1015.2
20260507091733 73 0.0 0.0 0.00 0.00 0.00 51 1015.2
20260507090733 71 0.0 0.0 0.00 0.00 0.00 58 1015.1
20260507085733 72 0.0 0.0 0.00 0.00 0.00 56 1015.2
20260507084734 73 0.0 0.0 0.00 0.00 0.00 58 1015.1
20260507083734 75 0.0 0.0 0.00 0.00 0.00 52 1015.2
20260507082733 76 0.0 0.0 0.00 0.00 0.00 54 1015.2
20260507081733 74 0.0 0.0 0.00 0.00 0.00 61 1015.3
20260507080734 75 0.0 0.0 0.00 0.00 0.00 61 1015.2
20260507075747 75 0.0 0.0 0.00 0.00 0.00 62 1015.4
20260507074738 74 0.0 0.0 0.00 0.00 0.00 63 1015.4
20260507073734 73 0.0 0.0 0.00 0.00 0.00 66 1015.5
20260507072734 72 0.0 0.0 0.00 0.00 0.00 68 1015.6
20260507071734 70 0.0 0.0 0.00 0.00 0.00 72 1015.6
20260507070734 70 0.0 0.0 0.00 0.00 0.00 79 1015.5
20260507065734 69 0.0 0.0 0.00 0.00 0.00 82 1015.5
20260507064733 68 0.0 0.0 0.00 0.00 0.00 89 1015.4
20260507063734 66 0.0 0.0 0.00 0.00 0.00 96 1015.4
20260507062734 64 0.0 0.0 0.00 0.00 0.00 10 1015.4
20260507061733 62 0.0 0.0 0.00 0.00 0.00 10 1015.3
20260507060734 59 0.0 0.0 0.00 0.00 0.00 10 1015.3
20260507055733 59 0.0 0.0 0.00 0.00 0.00 10 1015.3
20260507054734 58 0.0 0.0 0.00 0.00 0.00 10 1015.1
20260507053733 58 0.0 0.0 0.00 0.00 0.00 10 1015.1
20260507052734 58 0.0 0.0 0.00 0.00 0.00 10 1015.0
20260507051734 57 0.0 0.0 0.00 0.00 0.00 10 1014.9
20260507050734 56 0.0 0.0 0.00 0.00 0.00 10 1014.9
20260507045734 57 0.0 0.0 0.00 0.00 0.00 10 1014.7
20260507044734 56 0.0 0.0 0.00 0.00 0.00 10 1014.7
20260507043733 56 0.0 0.0 0.00 0.00 0.00 10 1014.6
20260507042734 56 0.0 0.0 0.00 0.00 0.00 10 1014.6
20260507041734 56 0.0 0.0 0.00 0.00 0.00 10 1014.6
20260507040734 56 0.0 0.0 0.00 0.00 0.00 10 1014.5
20260507035733 57 0.0 0.0 0.00 0.00 0.00 10 1014.5
20260507034734 57 0.0 0.0 0.00 0.00 0.00 10 1014.4
20260507033733 57 0.0 0.0 0.00 0.00 0.00 10 1014.3
20260507032733 57 0.0 0.0 0.00 0.00 0.00 10 1014.4
20260507031733 57 0.0 0.0 0.00 0.00 0.00 10 1014.4
20260507030733 57 0.0 0.0 0.00 0.00 0.00 10 1014.5
20260507025734 57 0.0 0.0 0.00 0.00 0.00 10 1014.5
20260507024734 57 0.0 0.0 0.00 0.00 0.00 10 1014.4